Location: アルンシュタイン
(50.0000°N, 10.0000°E)
Time: 06:50:56
(UTC+01:00)

Envisat - Pass Details

Date: 26 October 2021
Orbit: 764 x 766 km, 98.2° (Epoch: 04 December)

Event Time Altitude Azimuth Distance (km) Brightness Sun altitude
Rises 06:41:30 0° 13° (NNE) 3,246 6.4 -13.1°
Reaches altitude 10° 06:43:49 10° 13° (NNE) 2,315 5.6 -12.8°
Maximum altitude 06:48:56 87° 286° (WNW) 774 3.0 -12.0°
Drops below altitude 10° 06:54:00 10° 198° (SSW) 2,297 5.4 -11.1°
Sets 06:56:18 0° 198° (SSW) 3,218 6.1 -10.8°
